This demonstration page uses our WeatherBlox Daily Observations layout. Learn more.

Left ArrowRight Arrow

39.12711, -84.51439

Hourly Observations for July 20, 2018

Temp ( °F °C ) Dew Point ( °F °C ) Humidity (%) Winds ( mph kmh ) Pressure ( in mb ) Visibility ( mi km ) Precip ( " mm )
12:53 am 00:53 Clear 66 18.9 63 17.2 90 90 Calm 29.93 1013 10 16 0.00 0.00
1:53 am 01:53 Clear 66 18.9 63 17.2 90 90 Calm 29.91 1013 10 16 0.00 0.00
2:53 am 02:53 Partly Cloudy 66 18.9 64 17.8 93 93 Calm 29.90 1013 10 16 0.00 0.00
3:53 am 03:53 Mostly Cloudy 66 18.9 65 18.3 96 96 Calm 29.90 1012 10 16 0.00 0.00
4:53 am 04:53 Cloudy 67 19.4 65 18.3 93 93 Calm 29.88 1012 10 16 0.00 0.00
5:48 am 05:48 Cloudy with Thunderstorms 68 20 66 19 94 94 Calm 29.91 1013 9 14 0.00 0.03
5:53 am 05:53 Cloudy with Thunderstorms 68 20 68 20 100 100 Calm 29.88 1012 9 14 0.00 0.03
6:23 am 06:23 Cloudy with Nearby Thunderstorms 70 21.1 67 19.4 90 90 NW 7 11 29.91 1013 5 8 0.03 0.76
6:41 am 06:41 Cloudy with Thunderstorms 69 20.6 68 20 96 96 ESE 5 7 29.91 1013 4 6 0.08 2.03
6:53 am 06:53 Cloudy with Thunderstorms 69 20.6 68 20 96 96 NNE 3 6 29.90 1013 5 8 0.15 3.81
7:24 am 07:24 Cloudy with Nearby Thunderstorms 68 20 68 20 100 100 SW 5 7 29.91 1013 2 3 0.10 2.54
7:30 am 07:30 Cloudy with Thunderstorms 68 20 68 20 100 100 SSW 3 6 29.91 1013 5 8 0.13 3.30
7:53 am 07:53 Cloudy with Strong Thunderstorms 69 20.6 69 20.6 100 100 S 7 11 29.93 1014 2 3 0.30 7.62
8:12 am 08:12 Cloudy with Nearby Thunderstorms 69 20.6 69 20.6 100 100 SSE 9 15 29.94 1014 3 4 0.06 1.52
8:15 am 08:15 Cloudy with Nearby Thunderstorms 69 20.6 69 20.6 100 100 S 9 15 29.94 1014 3 4 0.07 1.78
8:23 am 08:23 Cloudy with Rain 69 20.6 69 20.6 100 100 S 3 6 29.91 1013 3 4 0.10 2.54
8:27 am 08:27 Cloudy with Light Rain 69 20.6 69 20.6 100 100 S 3 6 29.91 1013 3 5 0.10 2.54
8:53 am 08:53 Mostly Cloudy with Light Rain 70 21.1 69 20.6 97 97 Calm 29.92 1013 10 16 0.11 2.79
9:53 am 09:53 Cloudy with Light Rain 71 21.7 69 20.6 94 94 SSE 9 15 29.92 1013 10 16 0.00 0.03
10:06 am 10:06 Cloudy with Nearby Thunderstorms 70 21.1 68 20 93 93 SSE 7 11 29.91 1013 10 16 0.00 0.03
10:12 am 10:12 Cloudy with Thunderstorms 70 21.1 68 20 93 93 VRB 5 7 29.91 1013 10 16 0.00 0.03
10:30 am 10:30 Mostly Cloudy with Light Rain 70 21.1 68 20 93 93 SSW 7 11 29.91 1013 10 16 0.00 0.03
10:53 am 10:53 Mostly Cloudy with Light Rain 70 21.1 69 20.6 97 97 S 8 13 29.92 1013 10 16 0.00 0.03
11:00 am 11:00 Mostly Cloudy with Nearby Thunderstorms 70 21.1 69 20.6 97 97 S 9 15 29.91 1013 10 16 0.00 0.03
11:32 am 11:32 Cloudy with Thunderstorms 69 20.6 68 20 96 96 SSE 8 13 29.91 1013 6 10 0.03 0.76
11:53 am 11:53 Cloudy with Thunderstorms 69 20.6 68 20 96 96 N 5 7 29.94 1014 8 13 0.04 1.02
12:10 pm 12:10 Cloudy with Nearby Thunderstorms 69 20.6 68 20 96 96 SE 9 15 29.91 1013 10 16 0.00 0.03
12:25 pm 12:25 Cloudy with Nearby Thunderstorms 69 20.6 68 20 96 96 SSE 7 11 29.91 1013 10 16 0.00 0.03
12:44 pm 12:44 Cloudy 70 21.1 68 20 93 93 SSE 9 15 29.91 1013 10 16 0.00 0.03
12:53 pm 12:53 Cloudy with Light Rain 69 20.6 68 20 96 96 S 7 11 29.91 1013 10 16 0.00 0.03
1:53 pm 13:53 Cloudy 72 22.2 68 20 87 87 S 8 13 29.87 1011 10 16 0.00 0.03
2:53 pm 14:53 Mostly Cloudy with Nearby Thunderstorms 73 22.8 68 20 84 84 S 13 20 29.83 1010 10 16 0.00 0.00
3:02 pm 15:02 Mostly Cloudy with Thunderstorms 72 22.2 65 18.3 79 79 W 30 48 29.91 1013 10 16 0.00 0.00
3:08 pm 15:08 Windy with Storms Likely 68 20 62 16.7 81 81 WSW 26 43 29.91 1013 2 3 0.01 0.25
3:43 pm 15:43 Cloudy with Thunderstorms 65 18.3 64 17.8 97 97 SE 3 6 29.88 1012 10 16 0.19 4.83
3:53 pm 15:53 Cloudy with Thunderstorms 65 18.3 64 17.8 97 97 SE 8 13 29.86 1011 10 16 0.19 4.83
4:53 pm 16:53 Partly Cloudy with Light Rain 65 18.3 64 17.8 97 97 VRB 6 9 29.83 1010 10 16 0.04 1.02
5:53 pm 17:53 Mostly Sunny 67 19.4 64 17.8 91 91 Calm 29.83 1010 10 16 0.01 0.25
6:46 pm 18:46 Mostly Cloudy with Thunderstorms 67 19.4 64 17.8 91 91 VRB 3 6 29.83 1010 10 16 0.00 0.00
6:53 pm 18:53 Mostly Cloudy with Thunderstorms 67 19.4 64 17.8 91 91 Calm 29.82 1010 7 11 0.01 0.25
7:09 pm 19:09 Cloudy with Strong Thunderstorms 66 18.9 63 17.2 90 90 ESE 10 17 29.83 1010 2 3 0.09 2.29
7:35 pm 19:35 Partly Cloudy with Nearby Thunderstorms 66 18.9 64 17.8 93 93 SSW 9 15 29.83 1010 8 13 0.12 3.05
7:53 pm 19:53 Mostly Cloudy with Thunderstorms 65 18.3 64 17.8 97 97 S 5 7 29.84 1011 6 10 0.14 3.56
8:53 pm 20:53 Mostly Cloudy with Thunderstorms 65 18.3 64 17.8 97 97 S 6 9 29.81 1010 6 10 0.10 2.54
9:53 pm 21:53 Cloudy with Thunderstorms 65 18.3 65 18.3 100 100 Calm 29.81 1010 10 16 0.11 2.79
10:53 pm 22:53 Mostly Clear with Nearby Thunderstorms 66 18.9 65 18.3 96 96 S 6 9 29.83 1010 10 16 0.06 1.52
11:07 pm 23:07 Partly Cloudy with Light Rain 66 18.9 65 18.3 96 96 S 5 7 29.83 1010 10 16 0.01 0.25
11:53 pm 23:53 Mostly Cloudy with Light Rain 66 18.9 65 18.3 96 96 VRB 7 11 29.83 1010 10 16 0.02 0.51

Powered by AerisWeather